When you browse on this site, cookies collect data to enhance your experience and personalize the content and advertising you see.
Visit our Privacy Policy to learn more. By continuing to use the site, you agree to this use of cookies and data.
  • In Czech Republic
  • List of Countries
  • For 7 days
  • Water Temperature
  • Satellite Maps
  • Weather Map
  • Weather Widgets
  • user-avatar
    Login

    Hourly Weather Wlora

    Today, 14 December, Friday

    Time Temperature Precipitation Wind Pressure Humidity
    00:00 +6°C° 0.4 mm 7 mps 760 mmHg 84%
    01:00 +7°C° 0 mm 8 mps 759 mmHg 84%
    02:00 +9°C° 0.3 mm 8 mps 759 mmHg 86%
    03:00 +9°C° 0.3 mm 8 mps 759 mmHg 88%
    04:00 +9°C° 0.3 mm 8 mps 759 mmHg 90%
    05:00 +9°C° 0.2 mm 8 mps 759 mmHg 90%
    06:00 +10°C° 0.2 mm 8 mps 759 mmHg 90%
    07:00 +10°C° 0 mm 8 mps 759 mmHg 90%
    08:00 +11°C° 0.3 mm 9 mps 759 mmHg 87%
    09:00 +12°C° 0.3 mm 9 mps 759 mmHg 84%
    10:00 +13°C° 0.3 mm 9 mps 759 mmHg 81%
    11:00 +13°C° 0.4 mm 9 mps 759 mmHg 81%
    12:00 +15°C° 0.4 mm 9 mps 759 mmHg 80%
    13:00 +14°C° 0.4 mm 10 mps 758 mmHg 80%
    14:00 +15°C° 0.5 mm 9 mps 758 mmHg 82%
    15:00 +13°C° 0.5 mm 9 mps 758 mmHg 83%
    16:00 +13°C° 0.5 mm 9 mps 758 mmHg 85%
    17:00 +13°C° 0.4 mm 9 mps 758 mmHg 86%
    18:00 +12°C° 0.4 mm 9 mps 758 mmHg 87%
    19:00 +12°C° 0.4 mm 9 mps 758 mmHg 88%
    20:00 +11°C° 0.3 mm 9 mps 758 mmHg 87%
    21:00 +11°C° 0.3 mm 9 mps 759 mmHg 85%
    22:00 +11°C° 0.3 mm 9 mps 759 mmHg 84%
    23:00 +11°C° 0.3 mm 9 mps 758 mmHg 82%

    Tomorrow, 15 December, Saturday

    Time Temperature Precipitation Wind Pressure Humidity
    00:00 +11°C° 0.3 mm 9 mps 758 mmHg 80%
    01:00 +11°C° 0.3 mm 9 mps 758 mmHg 79%
    02:00 +11°C° 0.3 mm 9 mps 758 mmHg 79%
    03:00 +11°C° 0.3 mm 9 mps 757 mmHg 80%
    04:00 +11°C° 0.3 mm 10 mps 757 mmHg 80%
    05:00 +11°C° 0.5 mm 10 mps 757 mmHg 81%
    06:00 +11°C° 0.5 mm 9 mps 757 mmHg 82%
    07:00 +11°C° 0.5 mm 9 mps 757 mmHg 83%
    08:00 +11°C° 0.7 mm 9 mps 758 mmHg 81%
    09:00 +12°C° 0.7 mm 9 mps 758 mmHg 80%
    10:00 +12°C° 0.7 mm 9 mps 758 mmHg 79%
    11:00 +13°C° 0.7 mm 9 mps 758 mmHg 76%
    12:00 +15°C° 0.7 mm 8 mps 758 mmHg 72%
    13:00 +16°C° 0.7 mm 8 mps 757 mmHg 69%
    14:00 +15°C° 1 mm 8 mps 757 mmHg 73%
    15:00 +14°C° 1 mm 7 mps 757 mmHg 77%
    16:00 +12°C° 1 mm 7 mps 757 mmHg 81%
    17:00 +13°C° 1.5 mm 6 mps 757 mmHg 80%
    18:00 +13°C° 1.5 mm 6 mps 758 mmHg 79%
    19:00 +13°C° 1.5 mm 5 mps 758 mmHg 78%
    20:00 +11°C° 2.7 mm 6 mps 758 mmHg 79%
    21:00 +11°C° 2.7 mm 7 mps 758 mmHg 81%
    22:00 +11°C° 2.7 mm 7 mps 758 mmHg 82%
    23:00 +11°C° 1.9 mm 8 mps 759 mmHg 85%

    Day after tomorrow, 16 December, Sunday

    Time Temperature Precipitation Wind Pressure Humidity
    00:00 +10°C° 1.9 mm 9 mps 759 mmHg 88%
    01:00 +10°C° 1.9 mm 9 mps 759 mmHg 91%
    02:00 +10°C° 1 mm 9 mps 759 mmHg 92%
    03:00 +8°C° 1 mm 9 mps 759 mmHg 93%
    04:00 +9°C° 1 mm 8 mps 759 mmHg 93%
    05:00 +9°C° 0.1 mm 8 mps 759 mmHg 92%
    06:00 +9°C° 0.1 mm 8 mps 760 mmHg 91%
    07:00 +9°C° 0.1 mm 8 mps 760 mmHg 89%
    08:00 +9°C° 0 mm 8 mps 761 mmHg 86%
    09:00 +9°C° 0 mm 8 mps 761 mmHg 82%
    10:00 +9°C° 0 mm 8 mps 761 mmHg 79%
    11:00 +9°C° 0 mm 8 mps 761 mmHg 76%
    12:00 +10°C° 0 mm 8 mps 761 mmHg 72%
    13:00 +10°C° 0 mm 8 mps 761 mmHg 69%
    14:00 +9°C° 0 mm 8 mps 761 mmHg 70%
    15:00 +9°C° 0 mm 8 mps 762 mmHg 71%
    16:00 +7°C° 0 mm 8 mps 762 mmHg 72%
    17:00 +7°C° 0 mm 8 mps 763 mmHg 75%
    18:00 +6°C° 0 mm 7 mps 763 mmHg 77%
    19:00 +5°C° 0 mm 7 mps 764 mmHg 79%
    20:00 +7°C° 0 mm 6 mps 764 mmHg 80%
    21:00 +7°C° 0 mm 6 mps 764 mmHg 81%
    22:00 +7°C° 0 mm 5 mps 764 mmHg 81%
    23:00 +7°C° 0 mm 5 mps 764 mmHg 81%

    17 December, Monday

    Time Temperature Precipitation Wind Pressure Humidity
    00:00 +7°C° 0 mm 4 mps 764 mmHg 80%
    01:00 +7°C° 0 mm 4 mps 764 mmHg 80%
    02:00 +8°C° 0 mm 3 mps 764 mmHg 79%
    03:00 +8°C° 0 mm 3 mps 764 mmHg 77%
    04:00 +8°C° 0 mm 2 mps 764 mmHg 76%
    05:00 +9°C° 0 mm 2 mps 764 mmHg 75%
    06:00 +10°C° 0 mm 1 mps 764 mmHg 74%
    07:00 +10°C° 0 mm 1 mps 764 mmHg 73%
    08:00 +11°C° 0 mm 1 mps 764 mmHg 71%
    09:00 +12°C° 0 mm 1 mps 764 mmHg 69%
    10:00 +13°C° 0 mm 2 mps 764 mmHg 67%
    11:00 +12°C° 0 mm 3 mps 764 mmHg 69%
    12:00 +12°C° 0 mm 3 mps 763 mmHg 71%
    13:00 +12°C° 0 mm 4 mps 763 mmHg 73%
    14:00 +12°C° 0 mm 5 mps 762 mmHg 75%
    15:00 +12°C° 0 mm 5 mps 762 mmHg 77%
    16:00 +10°C° 0 mm 6 mps 762 mmHg 79%
    17:00 +10°C° 0.2 mm 7 mps 762 mmHg 80%
    18:00 +10°C° 0.2 mm 7 mps 762 mmHg 81%
    19:00 +10°C° 0.2 mm 8 mps 762 mmHg 82%
    20:00 +10°C° 0.8 mm 8 mps 762 mmHg 82%
    21:00 +10°C° 0.8 mm 9 mps 761 mmHg 83%
    22:00 +10°C° 0.8 mm 9 mps 761 mmHg 83%
    23:00 +10°C° 1.7 mm 8 mps 761 mmHg 84%

    18 December, Tuesday

    Time Temperature Precipitation Wind Pressure Humidity
    00:00 +10°C° 1.7 mm 8 mps 760 mmHg 85%
    01:00 +10°C° 1.7 mm 8 mps 760 mmHg 87%
    02:00 +10°C° 2.7 mm 7 mps 760 mmHg 86%
    03:00 +10°C° 2.7 mm 7 mps 760 mmHg 85%
    04:00 +10°C° 2.7 mm 7 mps 760 mmHg 85%
    05:00 +10°C° 2 mm 6 mps 760 mmHg 87%
    06:00 +10°C° 2 mm 5 mps 760 mmHg 89%
    07:00 +10°C° 2 mm 4 mps 760 mmHg 91%
    08:00 +11°C° 0.5 mm 4 mps 761 mmHg 89%
    09:00 +11°C° 0.5 mm 4 mps 761 mmHg 87%
    10:00 +11°C° 0.5 mm 4 mps 762 mmHg 85%
    11:00 +10°C° 0.5 mm 5 mps 762 mmHg 84%
    12:00 +10°C° 0.5 mm 6 mps 762 mmHg 83%
    13:00 +11°C° 0.5 mm 7 mps 762 mmHg 82%
    14:00 +11°C° 0.1 mm 7 mps 762 mmHg 83%
    15:00 +10°C° 0.1 mm 7 mps 762 mmHg 84%
    16:00 +10°C° 0.1 mm 8 mps 763 mmHg 84%
    17:00 +10°C° 0 mm 8 mps 763 mmHg 84%
    18:00 +9°C° 0 mm 8 mps 764 mmHg 84%
    19:00 +9°C° 0 mm 8 mps 764 mmHg 84%
    20:00 +9°C° 0 mm 8 mps 765 mmHg 83%
    21:00 +7°C° 0 mm 8 mps 765 mmHg 83%
    22:00 +7°C° 0 mm 8 mps 765 mmHg 82%
    23:00 +7°C° 0 mm 8 mps 765 mmHg 81%

    19 December, Wednesday

    Time Temperature Precipitation Wind Pressure Humidity
    00:00 +7°C° 0 mm 8 mps 766 mmHg 80%
    01:00 +6°C° 0 mm 7 mps 766 mmHg 79%
    02:00 +6°C° 0 mm 7 mps 766 mmHg 79%
    03:00 +6°C° 0 mm 7 mps 766 mmHg 78%
    04:00 +7°C° 0 mm 6 mps 766 mmHg 77%
    05:00 +7°C° 0 mm 6 mps 766 mmHg 76%
    06:00 +7°C° 0 mm 6 mps 767 mmHg 76%
    07:00 +7°C° 0 mm 6 mps 767 mmHg 75%
    08:00 +8°C° 0 mm 5 mps 767 mmHg 71%
    09:00 +10°C° 0 mm 5 mps 767 mmHg 67%
    10:00 +12°C° 0 mm 5 mps 767 mmHg 62%
    11:00 +13°C° 0 mm 5 mps 767 mmHg 60%
    12:00 +14°C° 0 mm 5 mps 767 mmHg 58%
    13:00 +15°C° 0 mm 5 mps 766 mmHg 56%
    14:00 +14°C° 0 mm 5 mps 766 mmHg 61%
    15:00 +13°C° 0 mm 4 mps 766 mmHg 65%
    16:00 +12°C° 0 mm 4 mps 766 mmHg 70%
    17:00 +11°C° 0 mm 3 mps 766 mmHg 71%
    18:00 +10°C° 0 mm 3 mps 767 mmHg 73%
    19:00 +10°C° 0 mm 2 mps 767 mmHg 74%
    20:00 +10°C° 0 mm 2 mps 767 mmHg 74%
    21:00 +10°C° 0 mm 2 mps 767 mmHg 74%
    22:00 +11°C° 0 mm 1 mps 767 mmHg 74%
    23:00 +10°C° 0 mm 1 mps 767 mmHg 75%
    Show more